AAL2630 KIAH-KDFW

Flight info

Callsign AAL2630
Flight time N/A
Altitude 30000
Route BLTWY7 CRIED BEREE3
Aircraft B738/M-SDE2E3FGHIRWXY/LB1

Departure

Time N/A
Airport George Bush Intercontinental Airport (KIAH)

Arrival

Time 2026-05-05 01:06
Airport Dallas Fort Worth International Airport (KDFW)
Time Latitude Longitude Altitude Speed Heading
2026-05-05 00:39 32.00100 -96.12551 27757 ft 359 kts 322°
2026-05-05 00:39 32.02274 -96.14133 27242 ft 370 kts 322°
2026-05-05 00:40 32.04454 -96.15706 26705 ft 364 kts 323°
2026-05-05 00:40 32.06599 -96.17250 26204 ft 359 kts 323°
2026-05-05 00:40 32.08713 -96.18774 25718 ft 353 kts 323°
2026-05-05 00:40 32.10769 -96.20260 25247 ft 350 kts 322°
2026-05-05 00:41 32.12828 -96.21751 24777 ft 345 kts 322°
2026-05-05 00:41 32.14866 -96.23229 24315 ft 345 kts 323°
2026-05-05 00:41 32.16929 -96.24730 23825 ft 350 kts 323°
2026-05-05 00:41 32.18993 -96.26229 23321 ft 347 kts 323°
2026-05-05 00:42 32.21036 -96.27712 22810 ft 343 kts 323°
2026-05-05 00:42 32.23058 -96.29180 22292 ft 339 kts 323°
2026-05-05 00:42 32.25060 -96.30634 21803 ft 336 kts 323°
2026-05-05 00:42 32.27045 -96.32078 21336 ft 336 kts 323°
2026-05-05 00:43 32.28919 -96.33759 20721 ft 344 kts 314°
2026-05-05 00:43 32.30631 -96.35721 20197 ft 341 kts 312°
2026-05-05 00:43 32.32301 -96.37693 19717 ft 337 kts 312°
2026-05-05 00:43 32.33956 -96.39646 19261 ft 336 kts 313°
2026-05-05 00:44 32.35613 -96.41585 18785 ft 335 kts 313°
2026-05-05 00:44 32.37278 -96.43520 18245 ft 337 kts 313°
2026-05-05 00:44 32.38955 -96.45459 17745 ft 337 kts 313°
2026-05-05 00:44 32.40634 -96.47396 17326 ft 339 kts 313°
2026-05-05 00:45 32.42329 -96.49350 16964 ft 338 kts 313°
2026-05-05 00:45 32.44002 -96.51278 16581 ft 333 kts 313°
2026-05-05 00:45 32.45629 -96.53151 16480 ft 322 kts 313°
2026-05-05 00:45 32.47211 -96.54973 16322 ft 313 kts 313°
2026-05-05 00:46 32.48763 -96.56763 16138 ft 312 kts 313°
2026-05-05 00:46 32.50329 -96.58563 15714 ft 313 kts 313°
2026-05-05 00:46 32.51887 -96.60346 15349 ft 310 kts 313°
2026-05-05 00:46 32.53428 -96.62109 14990 ft 306 kts 313°
2026-05-05 00:47 32.54950 -96.63853 14635 ft 303 kts 313°
2026-05-05 00:47 32.56464 -96.65587 14267 ft 303 kts 313°
2026-05-05 00:47 32.57989 -96.67322 13899 ft 305 kts 313°
2026-05-05 00:47 32.59529 -96.69055 13556 ft 303 kts 314°
2026-05-05 00:48 32.61035 -96.70746 13384 ft 294 kts 313°
2026-05-05 00:48 32.62492 -96.72384 13246 ft 284 kts 313°
2026-05-05 00:48 32.63452 -96.73465 13157 ft 277 kts 313°
2026-05-05 00:48 32.64826 -96.75014 13035 ft 268 kts 313°
2026-05-05 00:49 32.66153 -96.76513 12929 ft 259 kts 313°
2026-05-05 00:49 32.67451 -96.77984 12844 ft 258 kts 313°
2026-05-05 00:49 32.68768 -96.79481 12765 ft 266 kts 313°
2026-05-05 00:49 32.70101 -96.80995 12668 ft 270 kts 313°
2026-05-05 00:50 32.71459 -96.82538 12569 ft 270 kts 313°
2026-05-05 00:50 32.72813 -96.84077 12461 ft 269 kts 313°
2026-05-05 00:50 32.74151 -96.85595 12351 ft 262 kts 312°
2026-05-05 00:50 32.75442 -96.87060 12245 ft 252 kts 312°
2026-05-05 00:51 32.76689 -96.88475 12151 ft 243 kts 312°
2026-05-05 00:51 32.77891 -96.89840 12059 ft 235 kts 311°
2026-05-05 00:51 32.79147 -96.91051 11952 ft 237 kts 329°
2026-05-05 00:51 32.80778 -96.91533 11803 ft 247 kts 348°
2026-05-05 00:52 32.82517 -96.91591 11617 ft 252 kts 353°
2026-05-05 00:52 32.84275 -96.91554 11419 ft 253 kts 354°
2026-05-05 00:52 32.86036 -96.91510 11219 ft 253 kts 354°
2026-05-05 00:52 32.87797 -96.91474 11016 ft 254 kts 354°
2026-05-05 00:53 32.89565 -96.91447 10820 ft 254 kts 354°
2026-05-05 00:53 32.91331 -96.91427 10607 ft 254 kts 353°
2026-05-05 00:53 32.93097 -96.91411 10408 ft 253 kts 353°
2026-05-05 00:53 32.94861 -96.91398 10203 ft 253 kts 353°
2026-05-05 00:54 32.96620 -96.91385 10004 ft 252 kts 353°
2026-05-05 00:54 32.98372 -96.91373 9809 ft 252 kts 354°
2026-05-05 00:54 33.00119 -96.91361 9595 ft 251 kts 353°
2026-05-05 00:54 33.01862 -96.91350 9373 ft 249 kts 354°
2026-05-05 00:55 33.03591 -96.91338 9168 ft 248 kts 354°
2026-05-05 00:55 33.05308 -96.91326 8927 ft 246 kts 354°
2026-05-05 00:55 33.07012 -96.91315 8731 ft 244 kts 354°
2026-05-05 00:55 33.08703 -96.91305 8536 ft 242 kts 354°
2026-05-05 00:56 33.10385 -96.91294 8349 ft 241 kts 354°
2026-05-05 00:56 33.12061 -96.91285 8153 ft 241 kts 354°
2026-05-05 00:56 33.13744 -96.91275 7962 ft 243 kts 354°
2026-05-05 00:56 33.15445 -96.91266 7782 ft 247 kts 354°
2026-05-05 00:57 33.17165 -96.91255 7584 ft 247 kts 354°
2026-05-05 00:57 33.18885 -96.91242 7377 ft 247 kts 354°
2026-05-05 00:57 33.20582 -96.91366 7169 ft 240 kts 337°
2026-05-05 00:57 33.21907 -96.92364 6999 ft 224 kts 305°
2026-05-05 00:58 33.22614 -96.93948 6844 ft 213 kts 281°
2026-05-05 00:58 33.22718 -96.95685 6686 ft 210 kts 261°
2026-05-05 00:58 33.22265 -96.97343 6536 ft 213 kts 243°
2026-05-05 00:58 33.21541 -96.98893 6365 ft 214 kts 242°
2026-05-05 00:59 33.20813 -97.00439 6184 ft 213 kts 241°
2026-05-05 00:59 33.19837 -97.01751 5975 ft 216 kts 216°
2026-05-05 00:59 33.18425 -97.02417 5695 ft 224 kts 193°
2026-05-05 00:59 33.16856 -97.02498 5414 ft 227 kts 185°
2026-05-05 01:00 33.15274 -97.02501 5120 ft 226 kts 185°
2026-05-05 01:00 33.13716 -97.02496 4797 ft 222 kts 185°
2026-05-05 01:00 33.12193 -97.02495 4510 ft 216 kts 185°
2026-05-05 01:00 33.10739 -97.02498 4237 ft 202 kts 184°
2026-05-05 01:01 33.09382 -97.02502 3972 ft 189 kts 185°
2026-05-05 01:01 33.08106 -97.02508 3716 ft 178 kts 185°
2026-05-05 01:01 33.06905 -97.02514 3464 ft 167 kts 184°
2026-05-05 01:01 33.05800 -97.02521 3311 ft 151 kts 184°
2026-05-05 01:02 33.04790 -97.02528 3112 ft 139 kts 183°
2026-05-05 01:02 33.03852 -97.02533 2953 ft 132 kts 182°
2026-05-05 01:02 33.02949 -97.02538 2774 ft 128 kts 182°
2026-05-05 01:02 33.02078 -97.02542 2603 ft 121 kts 183°
2026-05-05 01:03 33.01267 -97.02546 2461 ft 115 kts 183°
2026-05-05 01:03 33.00450 -97.02551 2321 ft 122 kts 182°
2026-05-05 01:03 32.99614 -97.02554 2164 ft 119 kts 182°
2026-05-05 01:03 32.98769 -97.02559 1981 ft 125 kts 181°
2026-05-05 01:04 32.97890 -97.02563 1815 ft 124 kts 182°
2026-05-05 01:04 32.96194 -97.02569 1492 ft 125 kts 180°
2026-05-05 01:04 32.95307 -97.02597 1372 ft 127 kts 179°
2026-05-05 01:05 32.94399 -97.02574 1192 ft 128 kts 179°
2026-05-05 01:05 32.93513 -97.02585 1023 ft 131 kts 180°
2026-05-05 01:05 32.92602 -97.02599 839 ft 131 kts 179°
2026-05-05 01:05 32.91681 -97.02596 649 ft 130 kts 180°
2026-05-05 01:06 32.90845 -97.02602 572 ft 108 kts 180°
2026-05-05 01:06 32.90217 -97.02606 574 ft 73 kts 180°
2026-05-05 01:06 32.89851 -97.02608 571 ft 45 kts 180°
2026-05-05 01:06 32.89578 -97.02677 568 ft 32 kts 209°
2026-05-05 01:07 32.89447 -97.02767 574 ft 15 kts 210°
2026-05-05 01:07 32.89391 -97.02851 571 ft 8 kts 264°
2026-05-05 01:07 32.89391 -97.02890 573 ft 4 kts 270°
2026-05-05 01:07 32.89393 -97.02964 575 ft 13 kts 271°
2026-05-05 01:08 32.89393 -97.03079 575 ft 14 kts 269°
2026-05-05 01:08 32.89394 -97.03189 576 ft 13 kts 271°
2026-05-05 01:08 32.89395 -97.03241 579 ft 0 kts 270°
2026-05-05 01:09 32.89395 -97.03247 580 ft 2 kts 270°
2026-05-05 01:09 32.89395 -97.03293 583 ft 9 kts 269°
2026-05-05 01:10 32.89396 -97.03381 585 ft 11 kts 270°
2026-05-05 01:10 32.89396 -97.03475 585 ft 11 kts 270°
2026-05-05 01:10 32.89396 -97.03567 585 ft 11 kts 270°
2026-05-05 01:10 32.89397 -97.03634 585 ft 6 kts 271°
2026-05-05 01:11 32.89398 -97.03683 585 ft 6 kts 271°
2026-05-05 01:11 32.89406 -97.03727 585 ft 4 kts 313°
2026-05-05 01:11 32.89437 -97.03735 586 ft 5 kts 354°
2026-05-05 01:11 32.89467 -97.03738 586 ft 3 kts 355°
2026-05-05 01:12 32.89475 -97.03739 586 ft 0 kts 355°